Location: Pedimozza
(42.0500°N, 9.3500°E)
Time: 18:13:10
(UTC+00:00)

Falcon 9 debris - Pass Details

Date: 19 August 2019
Orbit: 431 x 438 km, 53.0° (Epoch: 13 October)

Event Time Altitude Azimuth Distance (km) Brightness Sun altitude
Rises 18:53:14 0° 303° (WNW) 2,419 9.1 -7.0°
Reaches altitude 10° 18:55:23 10° 299° (WNW) 1,545 7.7 -7.3°
Maximum altitude 18:58:46 52° 222° (SW) 547 3.7 -7.9°
Drops below altitude 10° 19:02:07 10° 145° (SE) 1,531 5.4 -8.5°
Enters shadow 19:02:21 - 144° (SE) 1,625 5.5 -8.5°
